User: anonymous   Login
Location: Donzy-le-Pr�
(47.3659°N, 3.1107°E)
Time: 00:49:57
(UTC+00:00)
Language:

Helios 1A Rocket - Orbit

View from above orbital plane
View from above orbital plane
View from above satellite
View from above satellite

Ground track
Ground track

The orbit data is extracted from the following two-line orbital elements,

1 23608U 95033D   21127.53841656 -.00000073  00000-0 -49887-6 0  9994
2 23608  98.2968 165.5045 0014828 249.1640 110.7993 14.97672829399947
Epoch (UTC): 07 May 2021 12:55:19
Eccentricity: 0.0014828
inclination: 98.2968°
perigee height: 564 km
apogee height: 584 km
right ascension of ascending node: 165.5045°
argument of perigee: 249.1640°
revolutions per day: 14.97672829
mean anomaly at epoch: 110.7993°
orbit number at epoch: 39994

The dashed part of the orbit path shows where the satellite is in the earth's shadow,  

DLR